CW8045 Weather Reports


time (UTC)temp
F
wind
direction
speed
knots
gust
knots
rain 1hr
in
rain 24hr
in
rain mn
in
humidity
%
barometer
mb
20260507113603 58 195 0.0 1.7 0.00 0.00 0.00 73 1015.0
20260507112703 58 184 0.0 1.7 0.00 0.00 0.00 72 1015.0
20260507111802 58 270 1.7 4.3 0.00 0.00 0.00 72 1015.0
20260507110924 58 301 1.7 6.1 0.00 0.00 0.00 74 1015.0
20260507110004 58 347 1.7 4.3 0.00 0.00 0.00 77 1015.0
20260507105404 58 63 1.7 3.5 0.00 0.00 0.00 77 1015.1
20260507104502 57 104 0.9 1.7 0.00 0.00 0.00 77 1015.0
20260507103602 56 180 0.9 3.5 0.00 0.00 0.00 81 1015.0
20260507102724 56 175 1.7 3.5 0.00 0.00 0.00 85 1015.1
20260507101802 55 305 0.9 3.5 0.00 0.00 0.00 87 1015.2
20260507100902 54 290 0.9 3.5 0.00 0.00 0.00 87 1015.3
20260507100002 54 309 0.9 3.5 0.00 0.00 0.00 89 1015.3
20260507095402 53 324 0.0 3.5 0.00 0.00 0.00 90 1015.3
20260507094502 53 298 0.9 3.5 0.00 0.00 0.00 90 1015.3
20260507093602 52 298 0.9 3.5 0.00 0.00 0.00 92 1015.2
20260507092703 52 305 0.9 3.5 0.00 0.00 0.00 93 1015.1
20260507091823 51 300 0.9 3.5 0.00 0.00 0.00 93 1015.1
20260507090902 51 0 0.0 0.0 0.00 0.00 0.00 93 1015.1
20260507090002 51 303 0.0 1.7 0.00 0.00 0.00 93 1015.0
20260507085403 51 305 0.9 1.7 0.00 0.00 0.00 93 1015.0
20260507084503 50 316 0.0 1.7 0.00 0.00 0.00 93 1014.9
20260507083602 50 317 0.0 1.7 0.00 0.00 0.00 94 1014.9
20260507082702 50 0 0.0 0.0 0.00 0.00 0.00 94 1014.9
20260507081824 50 0 0.0 0.0 0.00 0.00 0.00 94 1014.8
20260507080903 50 0 0.0 0.0 0.00 0.00 0.00 95 1014.7
20260507080003 49 0 0.0 0.0 0.00 0.00 0.00 95 1014.5
20260507075402 49 0 0.0 0.0 0.00 0.00 0.00 95 1014.4
20260507074503 49 0 0.0 0.0 0.00 0.00 0.00 95 1014.7
20260507073603 48 0 0.0 0.0 0.00 0.00 0.00 95 1014.6
20260507072702 48 0 0.0 0.0 0.00 0.00 0.00 95 1014.5
20260507071803 48 0 0.0 0.0 0.00 0.00 0.00 95 1014.5
20260507070904 48 0 0.0 0.0 0.00 0.00 0.00 95 1014.4
20260507070004 47 0 0.0 0.0 0.00 0.00 0.00 95 1014.4
20260507065403 47 0 0.0 0.0 0.00 0.00 0.00 95 1014.3
20260507064503 47 0 0.0 0.0 0.00 0.00 0.00 95 1014.2
20260507063624 47 0 0.0 0.0 0.00 0.00 0.00 95 1014.3
20260507062702 47 0 0.0 0.0 0.00 0.00 0.00 95 1014.1
20260507061824 47 0 0.0 0.0 0.00 0.00 0.00 95 1014.1
20260507060903 46 0 0.0 0.0 0.00 0.00 0.00 95 1014.2
20260507060002 46 0 0.0 0.0 0.00 0.00 0.00 95 1014.2
20260507055403 46 0 0.0 0.0 0.00 0.00 0.00 95 1014.1
20260507054503 46 343 0.9 1.7 0.00 0.00 0.00 95 1014.1
20260507053625 46 343 0.0 1.7 0.00 0.00 0.00 95 1014.0
20260507052703 46 344 0.9 1.7 0.00 0.00 0.00 95 1013.9
20260507051803 45 348 0.0 1.7 0.00 0.00 0.00 95 1013.8
20260507050925 45 349 0.0 1.7 0.00 0.00 0.00 95 1013.6
20260507050003 45 346 0.9 1.7 0.00 0.00 0.00 95 1013.6
20260507045403 45 343 0.9 1.7 0.00 0.00 0.00 95 1013.5
20260507044524 44 336 0.9 1.7 0.00 0.00 0.00 95 1013.5
20260507043604 44 336 0.0 3.5 0.00 0.00 0.00 95 1013.4
20260507042703 44 312 0.9 3.5 0.00 0.00 0.00 95 1013.2
20260507041803 44 288 0.9 3.5 0.00 0.00 0.00 94 1013.3
20260507040903 44 274 1.7 3.5 0.00 0.00 0.00 94 1013.3
20260507040003 44 298 0.9 3.5 0.00 0.00 0.00 95 1013.2
20260507035403 44 303 0.9 3.5 0.00 0.00 0.00 95 1013.2
20260507034524 44 301 1.7 3.5 0.00 0.00 0.00 95 1013.2
20260507033603 44 295 1.7 3.5 0.00 0.00 0.00 95 1013.1
20260507032703 43 284 0.9 3.5 0.00 0.00 0.00 95 1013.0
20260507031804 43 274 0.9 1.7 0.00 0.00 0.00 95 1013.1
20260507030903 43 0 0.0 0.0 0.00 0.00 0.00 94 1013.1
20260507030003 42 0 0.0 0.0 0.00 0.00 0.00 94 1013.1
20260507025403 42 0 0.0 0.0 0.00 0.00 0.00 93 1013.1
20260507024503 42 0 0.0 0.0 0.00 0.00 0.00 93 1013.0
20260507023603 42 0 0.0 0.0 0.00 0.00 0.00 93 1012.9
20260507022704 42 0 0.0 0.0 0.00 0.00 0.00 93 1013.0
20260507021825 42 0 0.0 0.0 0.00 0.00 0.00 93 1012.9
20260507020903 42 275 0.0 0.9 0.00 0.00 0.00 93 1012.9
20260507020003 43 0 0.0 0.0 0.00 0.00 0.00 92 1012.9
20260507015424 43 275 0.0 1.7 0.00 0.00 0.00 93 1012.9
20260507014503 43 274 0.9 1.7 0.00 0.00 0.00 93 1012.9
20260507013603 43 273 1.7 3.5 0.00 0.00 0.00 93 1012.8
20260507012703 43 272 1.7 3.5 0.00 0.00 0.00 93 1012.8
20260507011803 43 272 0.9 1.7 0.00 0.00 0.00 93 1012.9
20260507010903 44 271 0.9 1.7 0.00 0.00 0.00 93 1012.8
20260507010024 44 277 1.7 3.5 0.00 0.00 0.00 93 1012.8
20260507005403 44 290 0.9 3.5 0.00 0.00 0.00 92 1012.8
20260507004503 44 0 0.0 0.0 0.00 0.00 0.00 92 1012.8
20260507003603 44 0 0.0 0.0 0.00 0.00 0.00 92 1012.8
20260507002703 44 301 0.0 0.9 0.00 0.00 0.00 92 1012.8
20260507001803 44 0 0.0 0.0 0.00 0.00 0.00 92 1012.9
20260507000924 44 0 0.0 1.7 0.00 0.00 0.00 92 1012.9
20260507000003 43 302 0.0 1.7 0.00 0.00 0.00 91 1012.9
20260506235403 44 302 0.0 1.7 0.00 0.00 0.00 91 1012.9
20260506234524 44 302 0.0 1.7 0.00 0.00 0.00 91 1012.8
20260506233603 44 302 0.0 1.7 0.00 0.00 0.00 90 1012.9
20260506232724 44 0 0.0 0.0 0.00 0.00 0.00 90 1012.9
20260506231825 44 0 0.0 0.0 0.00 0.00 0.00 89 1012.9
20260506230903 45 302 0.0 1.7 0.00 0.00 0.00 90 1012.8
20260506230003 45 303 0.9 1.7 0.00 0.00 0.00 90 1012.8
20260506225404 45 303 0.9 1.7 0.00 0.00 0.00 90 1012.7
20260506224503 45 301 0.9 3.5 0.00 0.00 0.00 89 1012.7
20260506223604 46 312 0.9 1.7 0.00 0.00 0.00 89 1012.6
20260506222703 46 304 0.9 3.5 0.00 0.00 0.00 89 1012.6
20260506221803 46 296 0.9 1.7 0.00 0.00 0.00 88 1012.6
20260506220903 46 306 0.9 1.7 0.00 0.00 0.00 88 1012.5
20260506220004 46 296 1.7 4.3 0.00 0.00 0.00 88 1012.5
20260506215403 46 299 0.9 3.5 0.00 0.00 0.00 88 1012.5
20260506214503 46 294 0.9 3.5 0.00 0.00 0.00 88 1012.4
20260506213603 47 300 0.9 3.5 0.00 0.00 0.00 87 1012.4
20260506212703 47 295 1.7 4.3 0.00 0.00 0.00 87 1012.3
20260506211803 47 312 0.9 3.5 0.00 0.00 0.00 86 1012.3
20260506210903 47 324 1.7 4.3 0.00 0.00 0.00 86 1012.3
20260506210003 48 322 1.7 5.2 0.00 0.00 0.00 86 1012.3
20260506205403 48 326 1.7 5.2 0.00 0.00 0.00 85 1012.3
20260506204524 48 332 1.7 5.2 0.00 0.00 0.00 84 1012.2
20260506203603 49 329 0.9 6.1 0.00 0.00 0.00 84 1012.2
20260506202724 49 341 0.9 5.2 0.00 0.00 0.00 84 1012.2
20260506201824 49 351 1.7 5.2 0.00 0.00 0.00 83 1012.0
20260506200903 50 360 0.9 4.3 0.00 0.00 0.00 82 1012.0
20260506200003 50 347 0.9 3.5 0.00 0.00 0.00 81 1011.9
20260506195403 50 354 0.9 3.5 0.00 0.00 0.00 81 1011.8
20260506194503 51 355 0.9 6.1 0.00 0.00 0.00 81 1011.7
20260506193624 51 357 0.9 5.2 0.00 0.00 0.00 80 1011.5
20260506192705 52 332 0.9 7.0 0.00 0.00 0.00 79 1011.3
20260506191803 52 329 1.7 7.8 0.00 0.00 0.00 77 1011.2
20260506190904 53 334 3.5 7.0 0.00 0.00 0.00 76 1011.1
20260506190025 54 335 2.6 7.8 0.00 0.00 0.00 74 1011.0
20260506185403 55 335 2.6 7.0 0.00 0.00 0.00 74 1011.0
20260506184524 55 356 2.6 10.4 0.00 0.00 0.00 73 1010.9
20260506183603 56 353 4.3 10.4 0.00 0.00 0.00 71 1011.0
20260506182703 57 349 3.5 9.6 0.00 0.00 0.00 72 1010.9
20260506181804 57 342 2.6 7.8 0.00 0.00 0.00 70 1010.9
20260506180904 57 321 4.3 9.6 0.00 0.00 0.00 71 1010.7
20260506180004 56 327 3.5 9.6 0.00 0.00 0.00 72 1010.6
20260506175403 56 327 3.5 9.6 0.00 0.00 0.00 73 1010.6
20260506174503 56 341 3.5 8.7 0.00 0.00 0.00 73 1010.5
20260506173603 56 338 4.3 9.6 0.00 0.00 0.00 71 1010.4
20260506172703 56 353 3.5 7.8 0.00 0.00 0.00 72 1010.3
20260506171801 56 348 3.5 9.6 0.00 0.00 0.00 72 1010.1
20260506170903 56 335 4.3 10.4 0.00 0.00 0.00 72 1010.0
20260506170002 57 329 5.2 9.6 0.00 0.00 0.00 69 1009.9
20260506165401 58 338 4.3 9.6 0.00 0.00 0.00 67 1009.9
20260506164523 58 347 3.5 8.7 0.00 0.00 0.00 66 1009.9
20260506163602 58 353 4.3 12.2 0.00 0.00 0.00 66 1009.9
20260506162701 58 323 5.2 12.2 0.00 0.00 0.00 66 1009.8
20260506161822 58 320 6.1 13.0 0.00 0.00 0.00 65 1009.9
20260506160901 59 325 4.3 11.3 0.00 0.00 0.00 64 1009.8
20260506160023 59 342 4.3 9.6 0.00 0.00 0.00 64 1009.8
20260506155402 59 348 4.3 7.8 0.00 0.00 0.00 64 1009.9
20260506154502 59 337 4.3 11.3 0.00 0.00 0.00 65 1009.7
20260506153603 60 344 4.3 12.2 0.00 0.00 0.00 65 1009.8
20260506152723 60 4 5.2 12.2 0.00 0.00 0.00 64 1009.8
20260506151802 60 349 5.2 11.3 0.00 0.00 0.00 64 1009.9
20260506150902 59 346 5.2 15.6 0.00 0.00 0.00 64 1009.8
20260506150023 59 348 5.2 12.2 0.00 0.00 0.00 66 1009.9
20260506145402 59 349 5.2 12.2 0.00 0.00 0.00 67 1010.0
20260506144523 58 352 4.3 11.3 0.00 0.00 0.00 68 1009.8
20260506143602 58 353 6.1 13.0 0.00 0.00 0.00 66 1009.8
20260506142702 59 346 6.1 15.6 0.00 0.00 0.00 66 1009.7
20260506141802 59 356 5.2 11.3 0.00 0.00 0.00 64 1009.6
20260506140903 58 352 5.2 11.3 0.00 0.00 0.00 68 1009.6
20260506140002 58 359 5.2 12.2 0.00 0.00 0.00 66 1009.7
20260506135402 58 350 4.3 12.2 0.00 0.00 0.00 66 1009.7
20260506134502 57 2 6.1 13.0 0.00 0.00 0.00 69 1009.6
20260506133602 57 3 5.2 13.0 0.00 0.00 0.00 68 1009.6
20260506132702 57 358 6.1 13.0 0.00 0.00 0.00 68 1009.6
20260506131803 57 351 5.2 10.4 0.00 0.00 0.00 69 1009.5
20260506130923 57 332 4.3 11.3 0.00 0.00 0.00 68 1009.5
20260506130002 58 353 3.5 9.6 0.00 0.00 0.00 68 1009.5
20260506125402 57 349 2.6 7.8 0.00 0.00 0.00 68 1009.5
20260506124502 57 4 5.2 11.3 0.00 0.00 0.00 68 1009.3
20260506123603 57 1 6.1 11.3 0.00 0.00 0.00 67 1009.3
20260506122702 57 354 4.3 12.2 0.00 0.00 0.00 68 1009.2
20260506121802 57 324 5.2 12.2 0.00 0.00 0.00 69 1009.3
20260506120903 58 329 4.3 11.3 0.00 0.00 0.00 69 1009.2
20260506120024 58 352 5.2 11.3 0.00 0.00 0.00 70 1009.3
20260506115402 57 1 4.3 9.6 0.00 0.00 0.00 71 1009.2
20260506114502 56 2 5.2 10.4 0.00 0.00 0.00 69 1009.3